[[{"header":{"parameterUnit":"m.s-1","parameterCategory":1,"la1":30.2991,"la2":30.254,"lo1":-89.0895,"lo2":-89.0444,"dy":0.0017,"dx":0.0017,"nx":28,"ny":28,"refTime":"2024-06-09T09:00:00:Z","depth":0,"parameterNumber":2,"parameterNumberName":"U-component_of_WINDS"},"data":[0,0,0,0,0,0,0,0,0,0,0,0,0,0,0,0,0,0,0,0,0,0,0,0,0,0,0,0,0,0,0,0,0,0,0,0,0,0,0,0,0,0,0,0,0,0,0,0,0,0,0,0,0,0,0,0,0,0,3.2017,3.2017,0,3.2074,3.2075,3.2076,3.2017,3.2015,3.2012,3.201,3.207,3.2074,3.2077,0,0,0,0,0,0,0,0,0,0,0,0,0,3.1853,3.1856,3.2016,3.2017,3.2018,3.2074,3.2075,3.2076,3.2017,3.2014,3.2012,3.2009,3.2069,3.2073,3.2078,0,0,0,0,0,0,0,0,0,0,0,0,0,3.1919,3.1857,3.2016,3.1995,3.1994,3.2074,3.2075,3.2076,3.2018,3.2014,3.2011,3.2008,3.2067,3.2073,3.2078,3.2182,0,0,3.2095,3.2098,0,0,0,0,0,0,0,0,3.1915,3.1925,3.1998,3.1997,3.1996,3.2035,3.2039,3.2112,3.2019,3.2009,3.201,3.2006,3.2061,3.2067,3.2085,3.2185,3.2187,3.2096,3.2099,3.2102,3.2103,0,0,0,0,0,0,0,3.1911,3.1922,3.2039,3.1999,3.1998,3.1982,3.1988,3.2053,3.2054,3.2009,3.2005,3.2013,3.206,3.208,3.2086,3.2188,3.2096,3.2101,3.2104,3.2106,3.237,3.2373,0,0,0,0,0,0,3.1908,3.1919,3.2038,3.2041,3.1946,3.1988,3.1994,3.2026,3.2053,3.2054,3.2016,3.201,3.2072,3.208,3.2088,3.2207,3.2102,3.2107,3.211,3.2366,3.237,3.2374,0,0,0,0,0,0,3.1905,3.192,3.2035,3.1979,3.1992,3.1995,3.203,3.2029,3.2049,3.2058,3.2057,3.2037,3.207,3.208,3.2158,3.2209,3.2109,3.2114,3.2362,3.2367,3.2372,3.2449,0,0,0,0,0,0,3.1901,3.1919,3.1959,3.198,3.1996,3.2105,3.2034,3.2032,3.2059,3.2052,3.2077,3.2078,3.2068,3.215,3.2163,3.2214,3.2119,3.2357,3.2364,3.2371,3.2442,3.2456,3.2468,0,0,0,0,0,3.1895,3.198,3.1961,3.1976,3.2046,3.2108,3.2117,3.2103,3.2063,3.2102,3.2107,3.2077,3.2201,3.2158,3.2173,3.2227,3.2354,3.2362,3.237,3.2436,3.2453,3.2468,0,0,0,0,0,0,3.1966,3.1982,3.1962,3.2056,3.2081,3.2098,3.2147,3.2123,3.216,3.2152,3.2134,3.2141,3.2221,3.2232,3.2184,3.2326,3.2271,3.2282,3.2315,3.2332,3.2345,3.234,3.2124,0,0,0,0,0,3.1992,3.2042,3.2053,3.2135,3.2148,3.2146,3.2172,3.216,3.2185,3.2195,3.2206,3.2231,3.2275,3.2305,3.2347,3.2443,3.2446,3.2487,3.2501,3.2512,3.2521,3.2568,3.2586,3.2401,3.2401,3.2401,0,0,3.2048,3.2062,3.2095,3.2149,3.2167,3.2216,3.2155,3.2212,3.2248,3.2204,3.2276,3.2285,3.2312,3.2398,3.2436,3.2409,3.2573,3.2522,3.2531,3.2534,3.2579,3.2596,3.2612,3.2407,3.2406,3.2405,0,0,3.2173,3.2191,3.2258,3.2276,3.2303,3.23,3.2317,3.2337,3.234,3.2412,3.2379,3.2422,3.25,3.2518,3.2538,3.2667,3.2638,3.2681,3.275,3.2797,3.2811,3.2824,3.2866,3.2881,3.2691,3.2691,3.2691,0,3.2238,3.2312,3.2296,3.2353,3.2376,3.2338,3.2404,3.2423,3.2463,3.2479,3.2448,3.2541,3.2558,3.2645,3.2676,3.2695,3.271,3.2677,3.281,3.2823,3.2835,3.2874,3.289,3.2696,3.2695,3.2695,3.2694,0,3.2388,3.244,3.2491,3.2528,3.2557,3.262,3.2611,3.2643,3.2627,3.2627,3.2699,3.2716,3.2758,3.2779,3.2765,3.2864,3.2845,3.2813,3.2757,3.2857,3.2894,3.2909,3.2702,3.2701,3.2699,3.2698,0,0,3.256,3.2585,3.2604,3.2618,3.2643,3.2682,3.2741,3.2781,3.2806,3.2835,3.2882,3.2947,3.2915,3.2938,3.2926,3.2967,3.3062,3.2929,3.2929,3.295,3.3167,3.3188,3.3206,3.3044,3.3047,3.305,3.3163,0,3.2683,3.2784,3.277,3.2867,3.2912,3.2874,3.2925,3.2945,3.2946,3.2984,3.2986,3.303,3.2988,3.3,3.304,3.3042,3.3105,3.3034,3.3085,3.3087,3.3076,3.3226,3.325,3.3356,3.3178,3.318,3.3182,0,3.284,3.287,3.2971,3.2985,3.3003,3.3049,3.3082,3.312,3.3141,3.3139,3.3162,3.3141,3.3198,3.3143,3.3219,3.3171,3.3191,3.3195,3.3199,3.3201,3.3139,3.3228,3.339,3.3405,3.3205,3.3203,3.3202,0,3.2949,3.3017,3.3084,3.3098,3.3117,3.3149,3.3159,3.3177,3.32,3.3229,3.3244,3.328,3.3299,3.3327,3.3316,3.3277,3.3393,3.3338,3.339,3.339,3.3414,3.3412,3.3578,3.3433,3.3433,3.3433,3.3432,0,3.3085,3.3148,3.3133,3.3174,3.3242,3.3224,3.3291,3.3296,3.3312,3.3352,3.3323,3.3362,3.3346,3.3383,3.3375,3.3437,3.3447,3.3445,3.3441,3.3445,3.3445,3.3456,3.3447,3.3437,3.3436,3.3435,3.3434,0,3.3219,3.3212,3.3282,3.3294,3.3298,3.3346,3.3355,3.3393,3.3391,3.3442,3.3453,3.345,3.3492,3.3484,3.3531,3.3525,3.3601,3.3591,3.3594,3.359,3.3641,3.3635,3.3817,3.3838,3.3683,3.3685,3.3686,0,3.3304,3.3351,3.3366,3.339,3.3401,3.3442,3.3464,3.3449,3.3473,3.3498,3.3533,3.3571,3.3601,3.3669,3.3671,3.3705,3.3693,3.3754,3.3698,3.3699,3.3689,3.3684,3.3687,3.3764,3.3766,3.3768,3.3769,0,3.3456,3.3449,3.3483,3.3515,3.3542,3.3567,3.3589,3.3611,3.3596,3.3625,3.3667,3.369,3.3735,3.3773,3.3804,3.3813,3.3788,3.3787,3.38,3.3803,3.3801,3.3798,3.362,3.3782,3.3781,3.378,3.3779,3.3778,3.3565,3.3603,3.3618,3.3655,3.367,3.369,3.3724,3.3725,3.3759,3.3794,3.3783,3.3829,3.3845,3.3884,3.3897,3.3932,3.3908,3.3929,3.3933,3.3938,3.3942,3.3798,3.3938,3.3937,3.3937,3.3937,3.3937,0,3.3711,3.3718,3.3753,3.3783,3.3812,3.3785,3.3807,3.3832,3.3873,3.389,3.3919,3.3964,3.4,3.4003,3.4036,3.4063,3.4052,3.4072,3.4068,3.407,3.3963,3.3946,3.408,3.408,3.408,3.408,3.408,3.408,3.379,3.3851,3.3845,3.3912,3.3918,3.3962,3.3976,3.3994,3.4006,3.4058,3.4087,3.4088,3.4099,3.4132,3.4162,3.4162,3.4174,3.4198,3.4193,3.4092,3.4078,3.4064,3.4048,3.4202,3.4202,3.4297,3.4298,3.4298]},{"header":{"parameterUnit":"m.s-1","parameterCategory":1,"la1":30.2991,"la2":30.254,"lo1":-89.0895,"lo2":-89.0444,"dy":0.0017,"dx":0.0017,"nx":28,"ny":28,"refTime":"2024-06-09T09:00:00:Z","depth":0,"parameterNumber":3,"parameterNumberName":"V-component_of_WINDS"},"data":[0,0,0,0,0,0,0,0,0,0,0,0,0,0,0,0,0,0,0,0,0,0,0,0,0,0,0,0,0,0,0,0,0,0,0,0,0,0,0,0,0,0,0,0,0,0,0,0,0,0,0,0,0,0,0,0,0,0,3.3009,3.301,0,3.3102,3.3103,3.3104,3.3089,3.3088,3.3086,3.3085,3.3177,3.3181,3.3185,0,0,0,0,0,0,0,0,0,0,0,0,0,3.2811,3.2815,3.3008,3.301,3.3011,3.3102,3.3103,3.3105,3.309,3.3088,3.3086,3.3084,3.3176,3.318,3.3185,0,0,0,0,0,0,0,0,0,0,0,0,0,3.29,3.2816,3.3008,3.3014,3.3016,3.3102,3.3103,3.3105,3.309,3.3088,3.3085,3.3083,3.3174,3.318,3.3186,3.327,0,0,3.3204,3.3206,0,0,0,0,0,0,0,0,3.2895,3.2907,3.3012,3.3014,3.3016,3.3082,3.3068,3.316,3.3091,3.3062,3.3085,3.3082,3.3147,3.3155,3.3178,3.3274,3.3278,3.3204,3.3208,3.321,3.3212,0,0,0,0,0,0,0,3.2889,3.2903,3.3045,3.3014,3.3016,3.3011,3.3021,3.3085,3.3117,3.3064,3.3063,3.3075,3.3147,3.3172,3.318,3.328,3.3204,3.3209,3.3213,3.3215,3.3447,3.3449,0,0,0,0,0,0,3.2882,3.2898,3.3042,3.3048,3.2948,3.3016,3.3027,3.3063,3.3116,3.3122,3.3077,3.3074,3.3163,3.3173,3.3183,3.3283,3.321,3.3216,3.3219,3.3444,3.3447,3.345,0,0,0,0,0,0,3.2877,3.2895,3.3039,3.2973,3.2991,3.3022,3.3062,3.3066,3.3091,3.3125,3.313,3.3096,3.3162,3.3175,3.3248,3.3286,3.3219,3.3224,3.3441,3.3445,3.3449,3.3485,0,0,0,0,0,0,3.2872,3.2893,3.2927,3.2974,3.2995,3.3104,3.3065,3.307,3.3101,3.3098,3.3145,3.3151,3.3161,3.3239,3.3254,3.3293,3.3229,3.3438,3.3443,3.3447,3.3481,3.349,3.3498,0,0,0,0,0,3.2865,3.2934,3.2929,3.2946,3.3038,3.3106,3.3118,3.3129,3.3105,3.3138,3.3159,3.3149,3.328,3.3247,3.3263,3.3305,3.3435,3.3441,3.3447,3.3477,3.3488,3.3497,0,0,0,0,0,0,3.289,3.294,3.2935,3.3022,3.306,3.3104,3.3146,3.3141,3.3186,3.3181,3.3192,3.3203,3.3277,3.3298,3.3261,3.3387,3.3354,3.3363,3.3371,3.3382,3.339,3.3383,3.3233,0,0,0,0,0,3.2905,3.2958,3.2999,3.3071,3.309,3.3115,3.3145,3.315,3.319,3.3206,3.3233,3.3271,3.332,3.3352,3.34,3.3484,3.3492,3.352,3.3528,3.3535,3.3543,3.3586,3.3598,3.3469,3.3469,3.3469,0,0,3.2938,3.2972,3.3005,3.3076,3.3107,3.3159,3.3129,3.3186,3.3225,3.3214,3.3285,3.3306,3.3349,3.3427,3.3463,3.3447,3.358,3.3543,3.3548,3.3552,3.3593,3.3605,3.3616,3.3473,3.3473,3.3472,0,0,3.3024,3.3056,3.3118,3.3149,3.3195,3.3211,3.3226,3.327,3.3284,3.3356,3.3348,3.3393,3.3478,3.3508,3.3534,3.3629,3.362,3.3644,3.3688,3.373,3.374,3.3749,3.378,3.3792,3.3652,3.3652,3.3652,0,3.3058,3.3139,3.3151,3.3209,3.3239,3.3233,3.3294,3.3323,3.3382,3.3402,3.3384,3.3489,3.3518,3.3602,3.3624,3.3647,3.3662,3.3638,3.3738,3.3747,3.3755,3.3785,3.3797,3.3654,3.3654,3.3654,3.3653,0,3.3177,3.3233,3.3277,3.3335,3.3371,3.343,3.3449,3.3483,3.3485,3.3501,3.3572,3.3606,3.3659,3.3679,3.3682,3.3763,3.3751,3.3735,3.3702,3.377,3.3798,3.381,3.3658,3.3657,3.3656,3.3655,0,0,3.3282,3.3344,3.336,3.3385,3.3435,3.3477,3.3535,3.3587,3.3615,3.3656,3.3703,3.3774,3.3759,3.3789,3.3794,3.3831,3.3901,3.381,3.3811,3.3824,3.3989,3.4,3.4013,3.3895,3.3898,3.3899,3.3985,0,3.3371,3.3475,3.3486,3.3578,3.3628,3.3621,3.3671,3.3706,3.3723,3.3766,3.3784,3.3833,3.3811,3.3828,3.3865,3.3885,3.3934,3.3879,3.3937,3.3939,3.3925,3.4028,3.404,3.4119,3.3996,3.3998,3.3999,0,3.349,3.3533,3.363,3.3671,3.3692,3.3737,3.3784,3.3827,3.3865,3.3874,3.3906,3.3906,3.3963,3.3928,3.4005,3.3967,3.3991,3.4004,3.4008,3.4012,3.3972,3.4034,3.4145,3.4156,3.4017,3.4016,3.4015,0,3.3554,3.3637,3.3705,3.3727,3.3776,3.3807,3.3829,3.3865,3.3895,3.3936,3.3954,3.4001,3.4027,3.4062,3.4073,3.4047,3.4149,3.4115,3.4156,3.4156,3.4177,3.4176,3.4292,3.4196,3.4196,3.4195,3.4195,0,3.3651,3.371,3.3734,3.3776,3.384,3.3852,3.3915,3.3935,3.3966,3.401,3.4007,3.4048,3.4061,3.4103,3.4112,3.4173,3.4185,3.4193,3.4194,3.4192,3.4191,3.4207,3.4201,3.4198,3.4198,3.4197,3.4197,0,3.3733,3.3752,3.3825,3.3866,3.3877,3.3923,3.3957,3.3995,3.4011,3.4066,3.408,3.4103,3.4153,3.4168,3.4227,3.4233,3.4304,3.4301,3.4291,3.4291,3.433,3.4326,3.446,3.4477,3.4371,3.4372,3.4373,0,3.3794,3.3839,3.3884,3.3913,3.3936,3.3984,3.4014,3.4026,3.4058,3.4103,3.4136,3.4185,3.4225,3.4303,3.4325,3.4369,3.4366,3.441,3.4373,3.4369,3.4365,3.4361,3.4364,3.4417,3.4418,3.4419,3.442,0,3.3898,3.3904,3.3949,3.3996,3.4033,3.407,3.4106,3.413,3.4147,3.4182,3.4232,3.4263,3.4324,3.4371,3.4416,3.4436,3.443,3.4432,3.4443,3.4441,3.4432,3.4435,3.4309,3.4428,3.4427,3.4427,3.4426,3.4426,3.397,3.4008,3.4046,3.4094,3.4123,3.4156,3.4194,3.4214,3.4257,3.4307,3.4311,3.4366,3.44,3.446,3.4482,3.4523,3.451,3.4527,3.4531,3.4535,3.4537,3.4427,3.4531,3.4531,3.4531,3.4531,3.4531,0,3.4072,3.4095,3.414,3.419,3.4228,3.422,3.4259,3.429,3.4339,3.4372,3.4411,3.4467,3.4513,3.4538,3.4583,3.461,3.4608,3.4622,3.4619,3.4623,3.4547,3.4532,3.4622,3.4622,3.4622,3.4622,3.4622,3.4622,3.4129,3.4194,3.4204,3.4281,3.4304,3.4358,3.438,3.441,3.4436,3.45,3.4538,3.4554,3.4583,3.4629,3.467,3.4676,3.4692,3.4706,3.471,3.4638,3.4629,3.462,3.4605,3.471,3.471,3.4782,3.4783,3.4783]}]]